GLO1495 SBGO-SBGR

Flight info

Callsign GLO1495
Flight time 1h 18m
Altitude 35000
Route ESBOD DCT ILPAV DCT ROBAG/N0471F360 UZ38 VUNOX
Aircraft B738/M-SDE2E3FGHIRWXY/LB1

Departure

Time 2026-04-22 13:55
Airport Santa Genoveva International Airport (SBGO)

Arrival

Time 2026-04-22 15:14
Airport São Paulo/Guarulhos–Governor André Franco Montoro International Airport (SBGR)
Time Latitude Longitude Altitude Speed Heading
2026-04-22 13:39 -16.62975 -49.21532 2461 ft 0 kts 64°
2026-04-22 13:48 -16.62985 -49.21552 2461 ft 4 kts 66°
2026-04-22 13:48 -16.62992 -49.21578 2461 ft 4 kts 91°
2026-04-22 13:49 -16.62986 -49.21602 2465 ft 4 kts 137°
2026-04-22 13:49 -16.62979 -49.21608 2461 ft 1 kts 153°
2026-04-22 13:50 -16.62981 -49.21607 2461 ft 2 kts 153°
2026-04-22 13:51 -16.63020 -49.21586 2461 ft 10 kts 150°
2026-04-22 13:51 -16.63094 -49.21527 2461 ft 15 kts 135°
2026-04-22 13:51 -16.63157 -49.21440 2461 ft 15 kts 121°
2026-04-22 13:51 -16.63207 -49.21350 2461 ft 15 kts 120°
2026-04-22 13:52 -16.63262 -49.21253 2463 ft 16 kts 120°
2026-04-22 13:52 -16.63319 -49.21149 2462 ft 16 kts 120°
2026-04-22 13:52 -16.63378 -49.21053 2465 ft 16 kts 136°
2026-04-22 13:52 -16.63476 -49.21012 2462 ft 15 kts 165°
2026-04-22 13:53 -16.63574 -49.21002 2467 ft 11 kts 201°
2026-04-22 13:53 -16.63620 -49.21026 2464 ft 7 kts 207°
2026-04-22 13:53 -16.63666 -49.21054 2463 ft 10 kts 210°
2026-04-22 13:53 -16.63724 -49.21090 2464 ft 10 kts 211°
2026-04-22 13:54 -16.63739 -49.21142 2462 ft 7 kts 299°
2026-04-22 13:54 -16.63734 -49.21150 2460 ft 0 kts 302°
2026-04-22 13:54 -16.63733 -49.21151 2460 ft 0 kts 302°
2026-04-22 13:54 -16.63627 -49.21341 2461 ft 65 kts 300°
2026-04-22 13:55 -16.63278 -49.21962 2444 ft 131 kts 300°
2026-04-22 13:55 -16.62737 -49.22935 2568 ft 170 kts 302°
2026-04-22 13:55 -16.62117 -49.24043 3186 ft 186 kts 302°
2026-04-22 13:55 -16.61463 -49.25204 3921 ft 192 kts 303°
2026-04-22 13:56 -16.60760 -49.26446 4436 ft 212 kts 303°
2026-04-22 13:56 -16.59967 -49.27850 4674 ft 238 kts 303°
2026-04-22 13:56 -16.59085 -49.29417 4939 ft 258 kts 303°
2026-04-22 13:56 -16.58150 -49.31073 5294 ft 276 kts 302°
2026-04-22 13:57 -16.57157 -49.32836 5889 ft 285 kts 302°
2026-04-22 13:57 -16.56283 -49.34707 6649 ft 291 kts 284°
2026-04-22 13:57 -16.56271 -49.36803 7431 ft 291 kts 255°
2026-04-22 13:57 -16.57188 -49.38673 8161 ft 293 kts 227°
2026-04-22 13:58 -16.58793 -49.39937 8953 ft 289 kts 201°
2026-04-22 13:58 -16.60736 -49.40339 9846 ft 285 kts 176°
2026-04-22 13:58 -16.62682 -49.39973 10557 ft 288 kts 163°
2026-04-22 13:58 -16.64606 -49.39333 11234 ft 292 kts 161°
2026-04-22 13:59 -16.66536 -49.38640 11965 ft 295 kts 160°
2026-04-22 13:59 -16.68492 -49.37940 12652 ft 299 kts 161°
2026-04-22 13:59 -16.70472 -49.37242 13397 ft 301 kts 161°
2026-04-22 13:59 -16.72446 -49.36558 14091 ft 304 kts 161°
2026-04-22 14:00 -16.74468 -49.35864 14689 ft 308 kts 161°
2026-04-22 14:00 -16.76518 -49.35165 15280 ft 312 kts 161°
2026-04-22 14:00 -16.78590 -49.34459 15903 ft 314 kts 161°
2026-04-22 14:00 -16.80675 -49.33750 16569 ft 315 kts 160°
2026-04-22 14:01 -16.82718 -49.32908 17174 ft 317 kts 154°
2026-04-22 14:01 -16.84728 -49.31886 17614 ft 326 kts 153°
2026-04-22 14:01 -16.86750 -49.30804 18252 ft 325 kts 152°
2026-04-22 14:01 -16.88760 -49.29725 18766 ft 328 kts 152°
2026-04-22 14:02 -16.90813 -49.28632 19188 ft 333 kts 153°
2026-04-22 14:02 -16.92899 -49.27532 19620 ft 339 kts 153°
2026-04-22 14:02 -16.95012 -49.26427 20150 ft 340 kts 153°
2026-04-22 14:02 -16.97142 -49.25320 20665 ft 343 kts 153°
2026-04-22 14:03 -16.99286 -49.24207 21202 ft 344 kts 153°
2026-04-22 14:03 -17.01434 -49.23095 21745 ft 346 kts 153°
2026-04-22 14:03 -17.03605 -49.21972 22214 ft 350 kts 153°
2026-04-22 14:03 -17.05057 -49.21221 22532 ft 353 kts 153°
2026-04-22 14:04 -17.07262 -49.20080 23009 ft 355 kts 153°
2026-04-22 14:04 -17.09489 -49.18927 23473 ft 359 kts 153°
2026-04-22 14:04 -17.11735 -49.17764 23863 ft 362 kts 153°
2026-04-22 14:04 -17.14004 -49.16589 24255 ft 365 kts 153°
2026-04-22 14:05 -17.16277 -49.15413 24702 ft 365 kts 153°
2026-04-22 14:05 -17.18554 -49.14233 25132 ft 366 kts 152°
2026-04-22 14:05 -17.23144 -49.11853 25914 ft 370 kts 152°
2026-04-22 14:06 -17.25455 -49.10655 26354 ft 371 kts 152°
2026-04-22 14:06 -17.27767 -49.09456 26791 ft 371 kts 152°
2026-04-22 14:06 -17.30114 -49.08310 27195 ft 374 kts 160°
2026-04-22 14:06 -17.32647 -49.07642 27563 ft 377 kts 167°
2026-04-22 14:07 -17.35234 -49.07137 27946 ft 379 kts 168°
2026-04-22 14:07 -17.37837 -49.06657 28334 ft 380 kts 168°
2026-04-22 14:07 -17.40449 -49.06168 28712 ft 382 kts 167°
2026-04-22 14:07 -17.43069 -49.05662 29072 ft 384 kts 167°
2026-04-22 14:08 -17.45663 -49.05146 29433 ft 386 kts 167°
2026-04-22 14:08 -17.48303 -49.04611 29793 ft 387 kts 167°
2026-04-22 14:08 -17.50957 -49.04069 30135 ft 389 kts 167°
2026-04-22 14:08 -17.53618 -49.03523 30425 ft 391 kts 167°
2026-04-22 14:09 -17.56292 -49.02974 30711 ft 393 kts 167°
2026-04-22 14:09 -17.58978 -49.02422 30999 ft 394 kts 167°
2026-04-22 14:09 -17.61679 -49.01867 31280 ft 396 kts 167°
2026-04-22 14:09 -17.64391 -49.01311 31554 ft 398 kts 167°
2026-04-22 14:10 -17.67118 -49.00750 31824 ft 400 kts 167°
2026-04-22 14:10 -17.69850 -49.00167 32066 ft 401 kts 163°
2026-04-22 14:10 -17.72470 -48.99165 32293 ft 402 kts 152°
2026-04-22 14:10 -17.74883 -48.97693 32553 ft 402 kts 144°
2026-04-22 14:11 -17.77031 -48.95814 32791 ft 403 kts 136°
2026-04-22 14:11 -17.79068 -48.93780 33021 ft 405 kts 136°
2026-04-22 14:11 -17.81092 -48.91710 33237 ft 407 kts 135°
2026-04-22 14:11 -17.83122 -48.89626 33441 ft 409 kts 136°
2026-04-22 14:12 -17.85169 -48.87528 33604 ft 413 kts 136°
2026-04-22 14:12 -17.87243 -48.85415 33798 ft 416 kts 136°
2026-04-22 14:12 -17.89328 -48.83301 34051 ft 417 kts 136°
2026-04-22 14:12 -17.91421 -48.81185 34269 ft 418 kts 136°
2026-04-22 14:13 -17.93518 -48.79069 34461 ft 419 kts 136°
2026-04-22 14:13 -17.95623 -48.76947 34674 ft 419 kts 136°
2026-04-22 14:13 -17.97729 -48.74825 34890 ft 420 kts 136°
2026-04-22 14:13 -17.99836 -48.72700 35046 ft 421 kts 136°
2026-04-22 14:14 -18.01963 -48.70554 35050 ft 426 kts 136°
2026-04-22 14:14 -18.06253 -48.66225 35068 ft 435 kts 137°
2026-04-22 14:15 -18.10654 -48.61778 35075 ft 443 kts 137°
2026-04-22 14:15 -18.15137 -48.57247 35071 ft 451 kts 137°
2026-04-22 14:16 -18.19690 -48.52642 35073 ft 458 kts 137°
2026-04-22 14:16 -18.24300 -48.47974 35067 ft 461 kts 137°
2026-04-22 14:17 -18.28937 -48.43276 35069 ft 464 kts 137°
2026-04-22 14:17 -18.33588 -48.38559 35066 ft 464 kts 137°
2026-04-22 14:18 -18.38211 -48.33867 35062 ft 464 kts 137°
2026-04-22 14:18 -18.42858 -48.29148 35065 ft 463 kts 137°
2026-04-22 14:19 -18.47487 -48.24443 35064 ft 462 kts 137°
2026-04-22 14:19 -18.52112 -48.19739 35063 ft 461 kts 137°
2026-04-22 14:20 -18.59020 -48.12705 35091 ft 460 kts 137°
2026-04-22 14:20 -18.63618 -48.08018 35099 ft 460 kts 137°
2026-04-22 14:21 -18.70510 -48.00986 35106 ft 460 kts 137°
2026-04-22 14:22 -18.77371 -47.93980 35097 ft 459 kts 137°
2026-04-22 14:23 -18.84254 -47.86943 35075 ft 459 kts 137°
2026-04-22 14:23 -18.88839 -47.82248 35065 ft 459 kts 137°
2026-04-22 14:24 -18.93428 -47.77546 35076 ft 459 kts 137°
2026-04-22 14:24 -18.98017 -47.72839 35070 ft 460 kts 137°
2026-04-22 14:25 -19.02614 -47.68121 35067 ft 460 kts 137°
2026-04-22 14:25 -19.07181 -47.63433 35070 ft 461 kts 138°
2026-04-22 14:26 -19.11779 -47.58707 35081 ft 461 kts 138°
2026-04-22 14:26 -19.16382 -47.53973 35078 ft 461 kts 138°
2026-04-22 14:27 -19.20982 -47.49236 35080 ft 461 kts 138°
2026-04-22 14:27 -19.25579 -47.44498 35071 ft 461 kts 138°
2026-04-22 14:28 -19.30174 -47.39760 35077 ft 461 kts 138°
2026-04-22 14:28 -19.34765 -47.35021 35079 ft 460 kts 138°
2026-04-22 14:29 -19.39343 -47.30292 35083 ft 459 kts 138°
2026-04-22 14:29 -19.43912 -47.25570 35105 ft 459 kts 138°
2026-04-22 14:30 -19.48451 -47.20873 35137 ft 459 kts 138°
2026-04-22 14:30 -19.53017 -47.16147 35173 ft 458 kts 138°
2026-04-22 14:31 -19.57574 -47.11423 35190 ft 458 kts 138°
2026-04-22 14:31 -19.62126 -47.06702 35198 ft 457 kts 138°
2026-04-22 14:32 -19.66675 -47.01979 35198 ft 458 kts 138°
2026-04-22 14:32 -19.68950 -46.99615 35090 ft 458 kts 138°
2026-04-22 14:32 -19.71224 -46.97252 35091 ft 458 kts 138°
2026-04-22 14:33 -19.75777 -46.92519 35097 ft 458 kts 138°
2026-04-22 14:33 -19.80332 -46.87779 35085 ft 459 kts 138°
2026-04-22 14:34 -19.84887 -46.83035 35097 ft 458 kts 138°
2026-04-22 14:34 -19.89432 -46.78297 35097 ft 458 kts 138°
2026-04-22 14:35 -19.93976 -46.73555 35096 ft 458 kts 138°
2026-04-22 14:35 -19.98525 -46.68805 35096 ft 458 kts 138°
2026-04-22 14:36 -20.03074 -46.64050 35097 ft 459 kts 138°
2026-04-22 14:36 -20.07631 -46.59282 35092 ft 460 kts 138°
2026-04-22 14:37 -20.12163 -46.54538 35104 ft 459 kts 138°
2026-04-22 14:37 -20.16717 -46.49765 35096 ft 460 kts 138°
2026-04-22 14:38 -20.21273 -46.44987 35096 ft 459 kts 139°
2026-04-22 14:38 -20.25825 -46.40209 35100 ft 460 kts 139°
2026-04-22 14:39 -20.30382 -46.35421 35101 ft 460 kts 139°
2026-04-22 14:39 -20.34939 -46.30628 35097 ft 460 kts 139°
2026-04-22 14:40 -20.41771 -46.23437 35092 ft 460 kts 139°
2026-04-22 14:40 -20.46323 -46.18639 35096 ft 460 kts 139°
2026-04-22 14:41 -20.50877 -46.13835 35098 ft 461 kts 139°
2026-04-22 14:41 -20.55436 -46.09022 35096 ft 461 kts 139°
2026-04-22 14:42 -20.59995 -46.04205 35088 ft 461 kts 139°
2026-04-22 14:42 -20.64524 -45.99413 35100 ft 461 kts 139°
2026-04-22 14:43 -20.69083 -45.94590 35095 ft 461 kts 140°
2026-04-22 14:43 -20.74222 -45.90629 35097 ft 453 kts 156°
2026-04-22 14:44 -20.80030 -45.88162 35097 ft 449 kts 162°
2026-04-22 14:44 -20.85974 -45.86191 35091 ft 445 kts 175°
2026-04-22 14:45 -20.92095 -45.86163 35092 ft 439 kts 192°
2026-04-22 14:45 -20.98043 -45.87627 35100 ft 439 kts 195°
2026-04-22 14:46 -21.03991 -45.89183 35093 ft 441 kts 195°
2026-04-22 14:46 -21.09962 -45.90705 35095 ft 441 kts 194°
2026-04-22 14:47 -21.15944 -45.92206 35100 ft 442 kts 194°
2026-04-22 14:47 -21.21933 -45.93703 35098 ft 442 kts 194°
2026-04-22 14:48 -21.27925 -45.95206 35094 ft 442 kts 194°
2026-04-22 14:48 -21.33912 -45.96707 35099 ft 442 kts 194°
2026-04-22 14:49 -21.39905 -45.98213 35095 ft 442 kts 194°
2026-04-22 14:49 -21.45895 -45.99718 35103 ft 442 kts 194°
2026-04-22 14:50 -21.51885 -46.01222 35103 ft 442 kts 195°
2026-04-22 14:50 -21.57841 -46.02710 35116 ft 442 kts 195°
2026-04-22 14:51 -21.63839 -46.04208 35099 ft 442 kts 195°
2026-04-22 14:51 -21.69828 -46.05706 35118 ft 442 kts 195°
2026-04-22 14:52 -21.75824 -46.07209 34929 ft 445 kts 195°
2026-04-22 14:52 -21.78861 -46.07972 34380 ft 448 kts 195°
2026-04-22 14:52 -21.81890 -46.08731 33662 ft 447 kts 194°
2026-04-22 14:53 -21.84919 -46.09490 32942 ft 447 kts 194°
2026-04-22 14:53 -21.87942 -46.10250 32207 ft 447 kts 194°
2026-04-22 14:53 -21.90974 -46.11011 31471 ft 448 kts 194°
2026-04-22 14:53 -21.94016 -46.11776 30699 ft 449 kts 194°
2026-04-22 14:54 -21.96036 -46.12284 30165 ft 451 kts 194°
2026-04-22 14:54 -21.99097 -46.13053 29250 ft 453 kts 194°
2026-04-22 14:54 -22.02172 -46.13826 28351 ft 454 kts 194°
2026-04-22 14:54 -22.05243 -46.14599 27649 ft 451 kts 195°
2026-04-22 14:55 -22.08282 -46.15364 27030 ft 447 kts 195°
2026-04-22 14:55 -22.11297 -46.16123 26430 ft 443 kts 195°
2026-04-22 14:55 -22.14283 -46.16874 25836 ft 439 kts 195°
2026-04-22 14:55 -22.17248 -46.17622 25216 ft 437 kts 195°
2026-04-22 14:56 -22.20197 -46.18366 24608 ft 434 kts 195°
2026-04-22 14:56 -22.24085 -46.19349 23811 ft 432 kts 195°
2026-04-22 14:56 -22.26058 -46.19847 23345 ft 431 kts 196°
2026-04-22 14:56 -22.28970 -46.20583 22682 ft 428 kts 195°
2026-04-22 14:57 -22.31858 -46.21309 22074 ft 425 kts 195°
2026-04-22 14:57 -22.34754 -46.21877 21568 ft 421 kts 191°
2026-04-22 14:57 -22.37642 -46.22314 21062 ft 417 kts 190°
2026-04-22 14:57 -22.40520 -46.22717 20581 ft 419 kts 189°
2026-04-22 14:58 -22.43422 -46.23133 20074 ft 423 kts 189°
2026-04-22 14:58 -22.46342 -46.23570 19566 ft 422 kts 190°
2026-04-22 14:58 -22.49237 -46.24017 19050 ft 419 kts 190°
2026-04-22 14:58 -22.52117 -46.24468 18555 ft 417 kts 189°
2026-04-22 14:59 -22.54979 -46.24917 18057 ft 413 kts 189°
2026-04-22 14:59 -22.57796 -46.25356 17799 ft 405 kts 190°
2026-04-22 14:59 -22.60489 -46.26031 17367 ft 405 kts 201°
2026-04-22 14:59 -22.63056 -46.27285 17025 ft 404 kts 207°
2026-04-22 15:00 -22.65568 -46.28665 16671 ft 403 kts 207°
2026-04-22 15:00 -22.68059 -46.30032 16307 ft 400 kts 207°
2026-04-22 15:00 -22.70533 -46.31383 15971 ft 397 kts 207°
2026-04-22 15:00 -22.72991 -46.32719 15637 ft 394 kts 207°
2026-04-22 15:01 -22.75439 -46.34045 15312 ft 392 kts 207°
2026-04-22 15:01 -22.77874 -46.35360 14976 ft 390 kts 207°
2026-04-22 15:01 -22.80301 -46.36670 14651 ft 389 kts 206°
2026-04-22 15:01 -22.82718 -46.37973 14328 ft 388 kts 206°
2026-04-22 15:02 -22.85101 -46.39259 13980 ft 387 kts 206°
2026-04-22 15:02 -22.87504 -46.40557 13636 ft 385 kts 206°
2026-04-22 15:02 -22.89896 -46.41849 13299 ft 384 kts 206°
2026-04-22 15:02 -22.92285 -46.43139 12958 ft 382 kts 206°
2026-04-22 15:03 -22.94659 -46.44421 12645 ft 380 kts 206°
2026-04-22 15:03 -22.97022 -46.45699 12306 ft 377 kts 206°
2026-04-22 15:03 -22.99348 -46.46958 11987 ft 370 kts 206°
2026-04-22 15:03 -23.01627 -46.48191 11680 ft 362 kts 206°
2026-04-22 15:04 -23.03858 -46.49399 11379 ft 355 kts 206°
2026-04-22 15:04 -23.06041 -46.50583 11073 ft 345 kts 206°
2026-04-22 15:04 -23.08152 -46.51726 10792 ft 333 kts 206°
2026-04-22 15:04 -23.10191 -46.52831 10520 ft 322 kts 205°
2026-04-22 15:05 -23.12161 -46.53900 10261 ft 311 kts 205°
2026-04-22 15:05 -23.14068 -46.54933 10045 ft 300 kts 205°
2026-04-22 15:05 -23.15876 -46.55915 10046 ft 283 kts 205°
2026-04-22 15:05 -23.17644 -46.56874 9554 ft 285 kts 206°
2026-04-22 15:06 -23.19396 -46.57824 9244 ft 280 kts 206°
2026-04-22 15:06 -23.21114 -46.58755 9009 ft 273 kts 206°
2026-04-22 15:06 -23.22809 -46.59675 8808 ft 271 kts 206°
2026-04-22 15:06 -23.24502 -46.60596 8521 ft 274 kts 206°
2026-04-22 15:07 -23.26222 -46.61531 8212 ft 277 kts 206°
2026-04-22 15:07 -23.27938 -46.62464 7966 ft 275 kts 206°
2026-04-22 15:07 -23.29643 -46.63392 7734 ft 274 kts 207°
2026-04-22 15:07 -23.31341 -46.64315 7520 ft 272 kts 207°
2026-04-22 15:08 -23.33032 -46.65235 7289 ft 272 kts 207°
2026-04-22 15:08 -23.34738 -46.66163 7082 ft 275 kts 207°
2026-04-22 15:08 -23.36436 -46.67086 6844 ft 270 kts 207°
2026-04-22 15:08 -23.38083 -46.67983 6622 ft 265 kts 207°
2026-04-22 15:09 -23.39706 -46.68868 6394 ft 255 kts 207°
2026-04-22 15:09 -23.41349 -46.69427 6107 ft 245 kts 181°
2026-04-22 15:09 -23.42954 -46.69035 5891 ft 234 kts 153°
2026-04-22 15:09 -23.44236 -46.68001 5665 ft 227 kts 131°
2026-04-22 15:10 -23.45172 -46.66663 5431 ft 217 kts 123°
2026-04-22 15:10 -23.45997 -46.65321 5220 ft 210 kts 122°
2026-04-22 15:10 -23.46803 -46.64013 4933 ft 205 kts 123°
2026-04-22 15:10 -23.47407 -46.62654 4679 ft 198 kts 95°
2026-04-22 15:11 -23.47210 -46.61239 4611 ft 182 kts 76°
2026-04-22 15:11 -23.46920 -46.59921 4522 ft 180 kts 75°
2026-04-22 15:11 -23.46586 -46.58637 4324 ft 172 kts 74°
2026-04-22 15:11 -23.46261 -46.57447 4152 ft 154 kts 74°
2026-04-22 15:12 -23.45953 -46.56321 3941 ft 157 kts 74°
2026-04-22 15:12 -23.45641 -46.55191 3721 ft 154 kts 74°
2026-04-22 15:12 -23.45330 -46.54095 3534 ft 150 kts 74°
2026-04-22 15:12 -23.45043 -46.52998 3335 ft 150 kts 75°
2026-04-22 15:13 -23.44745 -46.51901 3130 ft 151 kts 74°
2026-04-22 15:13 -23.44451 -46.50811 2907 ft 150 kts 74°
2026-04-22 15:13 -23.44155 -46.49717 2715 ft 150 kts 73°
2026-04-22 15:13 -23.43862 -46.48632 2504 ft 149 kts 73°
2026-04-22 15:14 -23.43586 -46.47610 2469 ft 124 kts 73°
2026-04-22 15:14 -23.43423 -46.47035 2469 ft 28 kts 64°
2026-04-22 15:14 -23.43326 -46.46889 2464 ft 17 kts 40°
2026-04-22 15:14 -23.43242 -46.46803 2466 ft 16 kts 43°
2026-04-22 15:15 -23.43160 -46.46721 2467 ft 16 kts 32°
2026-04-22 15:15 -23.43082 -46.46719 2466 ft 12 kts 342°
2026-04-22 15:15 -23.42976 -46.46753 2466 ft 19 kts 343°
2026-04-22 15:15 -23.42861 -46.46807 2464 ft 18 kts 303°
2026-04-22 15:16 -23.42877 -46.46937 2469 ft 17 kts 253°
2026-04-22 15:16 -23.42908 -46.47053 2469 ft 16 kts 253°
2026-04-22 15:16 -23.42938 -46.47164 2467 ft 15 kts 253°
2026-04-22 15:16 -23.42968 -46.47270 2469 ft 14 kts 253°
2026-04-22 15:17 -23.42995 -46.47373 2463 ft 14 kts 254°
2026-04-22 15:17 -23.42967 -46.47455 2464 ft 13 kts 340°
2026-04-22 15:17 -23.42885 -46.47493 2463 ft 13 kts 316°
2026-04-22 15:17 -23.42853 -46.47580 2463 ft 12 kts 300°
2026-04-22 15:18 -23.42820 -46.47643 2463 ft 0 kts 300°